Location: Austin
(30.3000°N, 97.7500°W)
Time: 06:39:07
(UTC-05:00)

Meteor 2-3 Rocket - Pass Details

Date: 16 June 2025
Orbit: 839 x 886 km, 81.2° (Epoch: 07 July)

Event Time Altitude Azimuth Distance (km) Brightness Sun altitude
Exits shadow 05:56:17 - 202° (SSW) 3,287 6.3 -6.9°
Reaches altitude 10° 05:58:25 10° 207° (SSW) 2,497 5.6 -6.5°
Maximum altitude 06:03:52 47° 281° (W) 1,140 4.1 -5.5°
Drops below altitude 10° 06:09:25 10° 354° (N) 2,537 6.5 -4.5°
Sets 06:11:58 0° 0° (N) 3,484 7.4 -4.0°
